KI4NG Weather Reports


time (UTC)temp
F
wind
direction
speed
knots
gust
knots
rain 1hr
in
rain 24hr
in
rain mn
in
humidity
%
barometer
mb
20260903114736 70 160 1.7 1.7 0.00 0.00 0.00 99 1021.1
20260903114232 70 161 1.7 1.7 0.00 0.00 0.00 99 1021.1
20260903113727 70 156 0.9 1.7 0.00 0.00 0.00 99 1020.9
20260903113223 70 156 1.7 1.7 0.00 0.00 0.00 99 1021.1
20260903112719 70 158 1.7 1.7 0.00 0.00 0.00 99 1021.0
20260903112215 70 164 1.7 1.7 0.00 0.00 0.00 99 1020.9
20260903111713 70 163 1.7 1.7 0.00 0.00 0.00 99 1020.9
20260903111209 70 161 1.7 1.7 0.00 0.00 0.00 99 1020.7
20260903110705 70 158 1.7 1.7 0.00 0.00 0.00 99 1020.4
20260903110200 70 162 1.7 1.7 0.00 0.00 0.00 99 1020.6
20260903105700 71 161 1.7 1.7 0.00 0.00 0.00 99 1020.7
20260903105155 71 161 1.7 1.7 0.00 0.00 0.00 99 1020.3
20260903104654 71 158 1.7 1.7 0.00 0.00 0.00 99 1020.4
20260903104150 71 160 1.7 1.7 0.00 0.00 0.00 99 1020.3
20260903103645 71 143 2.6 2.6 0.00 0.00 0.00 99 1020.3
20260903103142 71 156 1.7 1.7 0.00 0.00 0.00 99 1020.3
20260903102637 71 163 1.7 1.7 0.00 0.00 0.00 99 1020.2
20260903102137 71 172 1.7 1.7 0.00 0.00 0.00 99 1020.3
20260903101636 71 147 0.9 1.7 0.00 0.00 0.00 99 1020.1
20260903101132 71 166 1.7 1.7 0.00 0.00 0.00 98 1020.4
20260903100632 71 167 1.7 1.7 0.00 0.00 0.00 98 1020.1
20260903100131 71 160 1.7 1.7 0.00 0.00 0.00 98 1020.1
20260903095629 71 159 1.7 1.7 0.00 0.00 0.00 98 1020.1
20260903095129 71 156 1.7 1.7 0.00 0.00 0.00 98 1020.2
20260903094624 72 144 1.7 1.7 0.00 0.00 0.00 98 1020.2
20260903094119 71 154 1.7 1.7 0.00 0.00 0.00 98 1020.2
20260903093614 72 149 1.7 1.7 0.00 0.00 0.00 98 1020.2
20260903093110 72 158 1.7 1.7 0.00 0.00 0.00 98 1020.2
20260903092609 72 162 1.7 2.6 0.00 0.00 0.00 98 1020.1
20260903092104 72 169 1.7 1.7 0.00 0.00 0.00 98 1020.3
20260903091602 72 181 2.6 2.6 0.00 0.00 0.00 98 1020.4
20260903091056 72 175 1.7 1.7 0.00 0.00 0.00 98 1020.4
20260903090553 72 155 0.9 1.7 0.00 0.00 0.00 98 1020.3
20260903090051 72 170 0.9 1.7 0.00 0.00 0.00 98 1020.4
20260903085550 72 165 1.7 1.7 0.00 0.00 0.00 98 1020.2
20260903085046 72 162 0.9 0.9 0.00 0.00 0.00 98 1020.6
20260903084544 72 164 0.9 1.7 0.00 0.00 0.00 98 1020.4
20260903084039 72 167 0.9 1.7 0.00 0.00 0.00 98 1020.3
20260903083535 72 164 0.9 0.9 0.00 0.00 0.00 98 1020.2
20260903083034 72 159 0.9 0.9 0.00 0.00 0.00 97 1020.3
20260903082528 72 161 0.9 0.9 0.00 0.00 0.00 97 1020.2
20260903082024 73 161 1.7 1.7 0.00 0.00 0.00 97 1020.3
20260903081519 73 165 0.9 0.9 0.00 0.00 0.00 97 1020.3
20260903081015 73 160 0.9 0.9 0.00 0.00 0.00 96 1020.1
20260903080511 73 154 0.9 0.9 0.00 0.00 0.00 96 1020.2
20260903080008 73 160 0.9 0.9 0.00 0.00 0.00 97 1020.0
20260903075502 73 155 0.9 1.7 0.00 0.00 0.00 97 1020.0
20260903074957 73 165 0.9 0.9 0.00 0.00 0.00 96 1019.9
20260903074456 72 144 0.0 0.9 0.00 0.00 0.00 97 1019.9
20260903073952 72 158 0.9 0.9 0.00 0.00 0.00 97 1020.0
20260903073446 72 164 0.0 0.9 0.00 0.00 0.00 98 1020.0
20260903072942 73 164 0.9 0.9 0.00 0.00 0.00 98 1019.7
20260903072438 73 164 0.9 0.9 0.00 0.00 0.00 97 1020.0
20260903071935 72 169 0.9 0.9 0.00 0.00 0.00 98 1019.9
20260903071431 72 154 0.0 0.9 0.00 0.00 0.00 98 1019.9
20260903070926 73 167 0.0 0.9 0.00 0.00 0.00 98 1020.1
20260903070426 72 157 0.9 0.9 0.00 0.00 0.00 98 1020.1
20260903065921 72 159 0.9 0.9 0.00 0.00 0.00 99 1020.2
20260903065415 72 165 0.9 0.9 0.00 0.00 0.00 99 1020.2
20260903064914 72 162 0.0 0.0 0.00 0.00 0.00 99 1020.2
20260903064410 73 159 0.0 0.0 0.00 0.00 0.00 99 1020.1
20260903063905 73 165 0.0 0.0 0.00 0.00 0.00 99 1020.1
20260903063400 73 161 0.0 0.0 0.00 0.00 0.00 99 1020.0
20260903062856 73 167 0.0 0.0 0.00 0.00 0.00 99 1020.2
20260903062350 73 170 0.0 0.0 0.00 0.00 0.00 99 1020.2
20260903061847 73 157 0.0 0.0 0.00 0.00 0.00 99 1020.1
20260903061345 73 167 0.0 0.0 0.00 0.00 0.00 99 1020.1
20260903060842 73 169 0.0 0.0 0.00 0.00 0.00 99 1020.3
20260903060341 73 161 0.0 0.0 0.00 0.00 0.00 99 1020.1
20260903055839 73 159 0.0 0.0 0.00 0.00 0.00 99 1020.2
20260903055337 73 155 0.0 0.0 0.00 0.00 0.00 99 1020.2
20260903054833 73 160 0.0 0.0 0.00 0.00 0.00 99 1020.1
20260903054332 73 160 0.0 0.0 0.00 0.00 0.00 99 1020.3
20260903053829 73 168 0.0 0.0 0.00 0.00 0.00 99 1020.2
20260903053324 73 155 0.0 0.0 0.00 0.00 0.00 99 1020.3
20260903052820 73 160 0.9 0.9 0.00 0.00 0.00 99 1020.2
20260903052315 74 164 0.9 0.9 0.00 0.00 0.00 99 1020.6
20260903051810 74 163 0.9 0.9 0.00 0.00 0.00 99 1020.6
20260903051300 74 170 0.9 0.9 0.00 0.00 0.00 99 1020.3
20260903050755 74 163 0.9 0.9 0.00 0.00 0.00 99 1020.3
20260903050254 74 163 0.9 0.9 0.00 0.00 0.00 99 1020.3
20260903045749 74 167 0.9 0.9 0.00 0.00 0.00 98 1020.2
20260903045245 75 159 0.9 0.9 0.00 0.00 0.00 98 1020.7
20260903044741 75 161 0.9 0.9 0.00 0.00 0.00 97 1020.3
20260903044236 75 165 1.7 1.7 0.00 0.00 0.00 97 1020.4
20260903043733 75 174 0.9 0.9 0.00 0.00 0.00 97 1020.3
20260903043232 75 176 0.0 0.0 0.00 0.00 0.00 97 1020.3
20260903042731 75 162 0.0 0.0 0.00 0.00 0.00 98 1020.3
20260903042226 75 159 0.0 0.0 0.00 0.00 0.00 97 1020.4
20260903041723 75 162 0.0 0.0 0.00 0.00 0.00 97 1020.6
20260903041219 75 161 0.0 0.0 0.00 0.00 0.00 97 1020.3
20260903040713 75 164 0.0 0.0 0.00 0.00 0.00 96 1020.4
20260903040208 75 156 0.0 0.0 0.00 0.00 0.00 96 1020.4
20260903035704 75 164 0.0 0.0 0.00 0.00 0.00 97 1020.3
20260903035200 75 157 0.0 0.0 0.00 0.00 0.00 97 1020.6
20260903034659 75 157 0.0 0.0 0.00 0.00 0.00 97 1020.6
20260903034154 75 157 0.0 0.0 0.00 0.00 0.00 96 1020.7
20260903033650 76 157 0.0 0.0 0.00 0.00 0.00 96 1020.6
20260903033150 76 156 0.0 0.0 0.00 0.00 0.00 96 1020.7
20260903032645 76 161 0.0 0.0 0.00 0.00 0.00 95 1020.7
20260903032141 76 153 0.0 0.0 0.00 0.00 0.00 95 1020.6
20260903031636 76 154 0.0 0.0 0.00 0.00 0.00 94 1020.6
20260903031130 77 159 0.0 0.0 0.00 0.00 0.00 94 1020.8
20260903030626 77 158 0.0 0.0 0.00 0.00 0.00 94 1020.8
20260903030122 77 159 0.0 0.0 0.00 0.00 0.00 93 1020.8
20260903025617 77 156 0.0 0.0 0.00 0.00 0.00 92 1020.6
20260903025112 77 156 0.0 0.0 0.00 0.00 0.00 92 1020.7
20260903024607 77 156 0.0 0.0 0.00 0.00 0.00 92 1020.4
20260903024101 77 156 0.0 0.0 0.00 0.00 0.00 92 1020.6
20260903023557 78 156 0.0 0.0 0.00 0.00 0.00 91 1020.6
20260903023052 78 156 0.0 0.0 0.00 0.00 0.00 91 1020.4
20260903022551 78 156 0.0 0.0 0.00 0.00 0.00 90 1020.6
20260903022050 78 156 0.0 0.0 0.00 0.00 0.00 90 1020.6
20260903021545 78 156 0.0 0.0 0.00 0.00 0.00 89 1020.6
20260903021039 78 156 0.0 0.0 0.00 0.00 0.00 89 1020.9
20260903020536 78 156 0.0 0.0 0.00 0.00 0.00 89 1020.7
20260903020035 78 156 0.0 0.0 0.00 0.00 0.00 89 1020.7
20260903015531 79 156 0.0 0.0 0.00 0.00 0.00 89 1020.6
20260903015026 79 156 0.0 0.0 0.00 0.00 0.00 89 1020.6
20260903014525 79 156 0.0 0.0 0.00 0.00 0.00 88 1020.7
20260903014020 79 156 0.0 0.0 0.00 0.00 0.00 88 1020.4
20260903013519 79 156 0.0 0.0 0.00 0.00 0.00 87 1020.3
20260903013014 80 156 0.0 0.0 0.00 0.00 0.00 86 1020.4
20260903012514 80 156 0.0 0.0 0.00 0.00 0.00 86 1020.4
20260903012013 80 156 0.0 0.0 0.00 0.00 0.00 85 1020.2
20260903011507 80 154 0.0 0.0 0.00 0.00 0.00 83 1020.1
20260903011003 81 154 0.0 0.0 0.00 0.00 0.00 82 1020.2
20260903010457 81 154 0.0 0.0 0.00 0.00 0.00 81 1020.2
20260903005955 81 154 0.0 0.0 0.00 0.00 0.00 80 1020.1
20260903005450 82 154 0.0 0.0 0.00 0.00 0.00 79 1020.0
20260903004947 82 154 0.0 0.0 0.00 0.00 0.00 78 1020.0
20260903004441 82 154 0.0 0.0 0.00 0.00 0.00 78 1019.9
20260903003937 82 154 0.0 0.0 0.00 0.00 0.00 78 1020.1
20260903003437 83 154 0.0 0.0 0.00 0.00 0.00 77 1020.0
20260903002932 83 154 0.0 0.0 0.00 0.00 0.00 76 1020.0
20260903002427 83 154 0.0 0.0 0.00 0.00 0.00 76 1020.2
20260903001927 84 155 0.0 0.0 0.00 0.00 0.00 75 1020.0
20260903001427 84 155 0.0 0.0 0.00 0.00 0.00 74 1020.3
20260903000926 84 154 0.0 0.0 0.00 0.00 0.00 75 1019.9
20260903000422 84 154 0.0 0.0 0.00 0.00 0.00 73 1019.9
20260902235919 85 154 0.0 0.0 0.00 0.00 0.00 72 1020.0
20260902235415 85 154 0.0 0.0 0.00 0.00 0.00 72 1020.0
20260902234909 86 154 0.0 0.0 0.00 0.00 0.00 71 1019.9
20260902234404 86 157 0.0 0.0 0.00 0.00 0.00 70 1019.9
20260902233903 87 158 0.0 0.0 0.00 0.00 0.00 69 1019.9
20260902233357 87 159 0.0 0.0 0.00 0.00 0.00 68 1019.8
20260902232856 87 159 0.0 0.0 0.00 0.00 0.00 68 1020.0
20260902232351 87 158 0.0 0.0 0.00 0.00 0.00 67 1020.0
20260902231851 88 148 0.0 0.0 0.00 0.00 0.00 65 1020.0
20260902231346 88 148 0.0 0.0 0.00 0.00 0.00 64 1019.9
20260902230841 89 148 0.0 0.0 0.00 0.00 0.00 64 1019.7
20260902230340 89 146 0.0 0.0 0.00 0.00 0.00 63 1019.9
20260902225834 89 146 0.0 0.0 0.00 0.00 0.00 63 1019.9
20260902225329 89 146 0.0 0.0 0.00 0.00 0.00 61 1020.0
20260902224827 89 146 0.0 0.0 0.00 0.00 0.00 63 1020.1
20260902224323 89 146 0.0 0.0 0.00 0.00 0.00 62 1020.3
20260902223819 89 143 0.0 0.0 0.00 0.00 0.00 59 1020.2
20260902223314 89 151 0.0 0.0 0.00 0.00 0.00 63 1020.1
20260902222813 91 131 0.0 0.0 0.00 0.00 0.00 61 1020.0
20260902222307 91 142 0.0 0.0 0.00 0.00 0.00 59 1019.8
20260902221801 91 154 0.0 0.0 0.00 0.00 0.00 60 1020.0
20260902221300 89 146 0.0 0.0 0.00 0.00 0.00 64 1020.2
20260902220756 90 149 0.0 0.0 0.00 0.00 0.00 62 1020.2
20260902220255 91 149 0.0 0.0 0.00 0.00 0.00 56 1020.0
20260902215751 91 173 0.0 0.0 0.00 0.00 0.00 58 1020.1
20260902215246 91 143 0.0 0.9 0.00 0.00 0.00 57 1020.0
20260902214742 93 45 0.9 1.7 0.00 0.00 0.00 54 1019.9
20260902214241 94 120 0.9 1.7 0.00 0.00 0.00 53 1019.8
20260902213737 93 155 0.0 0.0 0.00 0.00 0.00 53 1020.1
20260902213237 93 141 0.9 0.9 0.00 0.00 0.00 54 1020.0
20260902212736 95 146 0.0 0.0 0.00 0.00 0.00 53 1020.0
20260902212233 94 169 0.9 0.9 0.00 0.00 0.00 55 1020.1
20260902211728 94 230 2.6 2.6 0.00 0.00 0.00 52 1020.0
20260902211224 94 110 0.0 0.9 0.00 0.00 0.00 54 1019.9
20260902210718 94 131 0.9 0.9 0.00 0.00 0.00 53 1020.1
20260902210214 94 149 0.9 0.9 0.00 0.00 0.00 55 1020.4
20260902205711 93 169 0.9 0.9 0.00 0.00 0.00 52 1020.2
20260902205206 94 121 2.6 2.6 0.00 0.00 0.00 51 1020.2
20260902204702 94 181 1.7 1.7 0.00 0.00 0.00 53 1020.2
20260902204156 94 192 0.9 0.9 0.00 0.00 0.00 52 1020.3
20260902203651 94 131 0.9 0.9 0.00 0.00 0.00 52 1020.2
20260902203146 95 126 0.0 0.9 0.00 0.00 0.00 52 1020.4
20260902202641 95 120 0.9 0.9 0.00 0.00 0.00 53 1020.4
20260902202138 94 174 0.9 1.7 0.00 0.00 0.00 56 1020.4
20260902201634 92 139 0.9 0.9 0.00 0.00 0.00 55 1020.4
20260902201133 94 153 2.6 2.6 0.00 0.00 0.00 56 1020.4
20260902200628 93 226 0.9 0.9 0.00 0.00 0.00 56 1020.6
20260902200124 95 145 0.9 0.9 0.00 0.00 0.00 55 1020.8
20260902195620 95 88 0.9 0.9 0.00 0.00 0.00 56 1020.8
20260902195119 95 277 1.7 1.7 0.00 0.00 0.00 54 1020.8
20260902194618 94 147 0.0 0.0 0.00 0.00 0.00 57 1021.0
20260902194113 93 255 1.7 1.7 0.00 0.00 0.00 55 1020.9
20260902193609 93 184 1.7 1.7 0.00 0.00 0.00 57 1021.2
20260902193109 92 168 0.9 1.7 0.00 0.00 0.00 59 1021.2
20260902192607 93 187 1.7 1.7 0.00 0.00 0.00 57 1020.9
20260902192106 93 150 0.0 0.0 0.00 0.00 0.00 60 1021.1
20260902191602 92 193 1.7 1.7 0.00 0.00 0.00 59 1021.2
20260902191056 91 164 1.7 1.7 0.00 0.00 0.00 63 1021.2
20260902190552 90 156 1.7 1.7 0.00 0.00 0.00 61 1021.3
20260902190047 89 160 0.9 0.9 0.00 0.00 0.00 65 1021.4
20260902185543 89 164 0.9 0.9 0.00 0.00 0.00 66 1021.6
20260902185038 89 158 0.9 0.9 0.00 0.00 0.00 67 1021.5
20260902184533 90 159 0.9 0.9 0.00 0.00 0.00 62 1021.4
20260902184028 91 150 0.9 1.7 0.00 0.00 0.00 60 1021.5
20260902183525 90 154 0.9 0.9 0.00 0.00 0.00 62 1021.6
20260902183021 89 147 0.9 0.9 0.00 0.00 0.00 67 1021.9
20260902182517 89 153 0.0 0.0 0.00 0.00 0.00 62 1021.8
20260902182012 87 148 0.0 0.0 0.00 0.00 0.00 68 1021.6
20260902181509 88 147 0.0 0.0 0.00 0.00 0.00 70 1021.6
20260902181003 89 147 0.0 0.0 0.00 0.00 0.00 67 1021.7
20260902180503 89 139 0.0 0.9 0.00 0.00 0.00 66 1021.7
20260902175958 88 111 0.0 0.0 0.00 0.00 0.00 66 1022.1
20260902175453 89 151 0.0 0.0 0.00 0.00 0.00 65 1022.0
20260902174948 91 152 0.0 0.9 0.00 0.00 0.00 65 1021.8
20260902174446 93 142 0.9 0.9 0.00 0.00 0.00 60 1021.7
20260902173941 91 142 0.9 0.9 0.00 0.00 0.00 61 1022.1
20260902173440 89 144 0.0 0.9 0.00 0.00 0.00 63 1022.0
20260902172935 88 152 0.0 0.0 0.00 0.00 0.00 65 1022.2
20260902172434 88 179 0.9 0.9 0.00 0.00 0.00 67 1022.2
20260902171930 89 171 0.9 0.9 0.00 0.00 0.00 66 1022.3
20260902171425 90 151 0.9 0.9 0.00 0.00 0.00 63 1022.3
20260902170921 91 84 1.7 1.7 0.00 0.00 0.00 60 1022.5
20260902170416 91 78 3.5 4.3 0.00 0.00 0.00 61 1022.7
20260902165912 92 55 1.7 2.6 0.00 0.00 0.00 63 1022.5
20260902165411 90 161 0.9 0.9 0.00 0.00 0.00 63 1022.5
20260902164906 88 165 0.9 0.9 0.00 0.00 0.00 69 1022.7
20260902164401 86 145 0.0 0.0 0.00 0.00 0.00 71 1022.9
20260902163900 86 139 0.0 0.0 0.00 0.00 0.00 71 1023.0
20260902163355 87 127 0.0 0.0 0.00 0.00 0.00 70 1023.0
20260902162853 87 146 0.0 0.0 0.00 0.00 0.00 66 1022.9
20260902162348 87 141 0.0 0.9 0.00 0.00 0.00 67 1023.2
20260902161843 88 137 0.0 0.0 0.00 0.00 0.00 65 1023.0
20260902161338 88 154 0.0 0.9 0.00 0.00 0.00 64 1023.1
20260902160834 89 181 0.9 0.9 0.00 0.00 0.00 63 1023.1
20260902160329 90 198 0.9 1.7 0.00 0.00 0.00 64 1023.2
20260902155827 89 188 1.7 1.7 0.00 0.00 0.00 63 1023.1
20260902155326 91 138 0.9 1.7 0.00 0.00 0.00 63 1023.1
20260902154821 91 171 0.0 0.9 0.00 0.00 0.00 63 1023.3
20260902154317 90 183 0.9 1.7 0.00 0.00 0.00 62 1023.1
20260902153815 89 166 0.0 0.0 0.00 0.00 0.00 64 1023.3
20260902153315 88 137 0.9 0.9 0.00 0.00 0.00 67 1023.3
20260902152812 88 152 1.7 1.7 0.00 0.00 0.00 68 1023.3
20260902152308 88 142 0.9 1.7 0.00 0.00 0.00 68 1023.3
20260902151802 87 246 1.7 1.7 0.00 0.00 0.00 67 1023.3
20260902151257 87 195 3.5 4.3 0.00 0.00 0.00 67 1023.3
20260902150752 88 160 0.9 1.7 0.00 0.00 0.00 66 1023.3
20260902150248 87 164 0.0 0.0 0.00 0.00 0.00 68 1023.3
20260902145747 86 117 0.9 0.9 0.00 0.00 0.00 70 1023.3
20260902145243 86 200 2.6 2.6 0.00 0.00 0.00 70 1023.3
20260902144738 87 93 0.0 0.9 0.00 0.00 0.00 72 1023.2
20260902144234 86 105 0.9 1.7 0.00 0.00 0.00 72 1023.1
20260902143729 86 96 1.7 1.7 0.00 0.00 0.00 74 1023.1
20260902143224 86 133 0.0 0.0 0.00 0.00 0.00 74 1023.0
20260902142720 86 156 0.9 1.7 0.00 0.00 0.00 73 1023.2
20260902142216 84 130 0.9 0.9 0.00 0.00 0.00 75 1023.1
20260902141715 84 135 0.9 1.7 0.00 0.00 0.00 77 1022.9
20260902141211 84 157 0.0 0.0 0.00 0.00 0.00 76 1023.0
20260902140706 83 119 0.9 1.7 0.00 0.00 0.00 78 1022.9
20260902140201 83 185 1.7 1.7 0.00 0.00 0.00 78 1022.9
20260902135700 82 149 0.9 1.7 0.00 0.00 0.00 81 1022.7
20260902135155 82 151 2.6 2.6 0.00 0.00 0.00 80 1022.8
20260902134651 81 149 0.9 1.7 0.00 0.00 0.00 85 1022.7
20260902134150 80 159 0.9 0.9 0.00 0.00 0.00 85 1022.8
20260902133646 79 158 0.9 0.9 0.00 0.00 0.00 86 1023.0
20260902133145 79 174 2.6 2.6 0.00 0.00 0.00 86 1023.0
20260902132641 78 160 0.9 0.9 0.00 0.00 0.00 89 1022.9
20260902132136 77 160 0.9 0.9 0.00 0.00 0.00 91 1022.8
20260902131632 77 181 1.7 2.6 0.00 0.00 0.00 91 1022.7
20260902131127 76 141 0.9 1.7 0.00 0.00 0.00 93 1022.8
20260902130623 75 155 1.7 2.6 0.00 0.00 0.00 93 1023.0
20260902130118 74 157 1.7 1.7 0.00 0.00 0.00 96 1022.9
20260902125614 74 157 0.9 0.9 0.00 0.00 0.00 96 1022.8
20260902125109 73 163 0.9 1.7 0.00 0.00 0.00 97 1022.8
20260902124606 73 159 1.7 1.7 0.00 0.00 0.00 97 1022.8
20260902124105 73 151 0.9 1.7 0.00 0.00 0.00 97 1022.8
20260902123602 72 165 1.7 1.7 0.00 0.00 0.00 98 1022.7
20260902123056 72 153 1.7 1.7 0.00 0.00 0.00 99 1022.8
20260902122556 71 151 1.7 1.7 0.00 0.00 0.00 99 1022.5
20260902122052 70 160 1.7 1.7 0.00 0.00 0.00 99 1022.8
20260902121551 70 165 0.9 1.7 0.00 0.00 0.00 99 1022.9
20260902121046 70 166 1.7 1.7 0.00 0.00 0.00 99 1022.8
20260902120543 70 166 1.7 1.7 0.00 0.00 0.00 99 1022.5
20260902120038 70 159 1.7 1.7 0.00 0.00 0.00 99 1022.5
20260902115539 70 161 0.9 1.7 0.00 0.00 0.00 99 1022.5